Location: Cran-Gévrier
(45.9039°N, 6.1012°E)
Time: 21:02:55
(UTC+00:00)

Cosmos 1943 Rocket - Pass Details

Date: 09 February 2023
Orbit: 811 x 844 km, 71.0° (Epoch: 22 March)

Event Time Altitude Azimuth Distance (km) Brightness Sun altitude
Rises 18:40:37 0° 338° (NNW) 3,413 5.6 -19.2°
Reaches altitude 10° 18:43:20 10° 348° (NNW) 2,473 4.7 -19.7°
Maximum altitude 18:48:26 33° 52° (NE) 1,381 2.9 -20.6°
Enters shadow 18:48:29 33° 53° (NE) 1,381 2.9 -20.6°
